User: anonymous   Login
Location: Eaton Estates
(41.3089°N, 82.0057°W)
Time: 18:37:14
(UTC+00:00)
Language:

Cosmos 1814 Rocket - Orbit

View from above orbital plane
View from above orbital plane
View from above satellite
View from above satellite

Ground track
Ground track

The orbit data is extracted from the following two-line orbital elements,

1 17304U 87006B   21263.85070367  .00000105  00000-0  43356-4 0  9997
2 17304  74.0568 109.1462 0030667 277.7143  82.0529 14.37742037816787
Epoch (UTC): 20 September 2021 20:25:00
Eccentricity: 0.0030667
inclination: 74.0568°
perigee height: 744 km
apogee height: 788 km
right ascension of ascending node: 109.1462°
argument of perigee: 277.7143°
revolutions per day: 14.37742037
mean anomaly at epoch: 82.0529°
orbit number at epoch: 81678

The dashed part of the orbit path shows where the satellite is in the earth's shadow,  

DLR